Weather History for Marathon, FL

Change the Weather History Date:

Sunday, October 14, 2012

  Actual Average Record
Temperature  
Mean Temperature 83 °F 81 °F  
Max Temperature 87 °F 86 °F 91 °F (2003)
Min Temperature 78 °F 76 °F 73 °F (1999)
Degree Days  
Heating Degree Days 0 0  
Month to date heating degree days 0 0  
Since 1 July heating degree days 0 0  
Cooling Degree Days 18 16  
Month to date cooling degree days 263 240  
Year to date cooling degree days 4506 4194  
Growing Degree Days 32 (Base 50)    
Moisture  
Dew Point 77 °F    
Average Humidity 86    
Maximum Humidity 94    
Minimum Humidity 77    
Precipitation  
Precipitation 0.20 in 0.14 in 2.03 in (1999)
Month to date precipitation 2.18 2.48  
Year to date precipitation 42.31 39.03  
Snow  
Snow 0.00 in - - ()
Month to date snowfall 0.0  
Since 1 July snowfall 0.0  
Since 1 September snowfall 0.0  
Snow Depth 0.00 in    
Sea Level Pressure  
Sea Level Pressure 29.94 in    
Wind  
Wind Speed 13 mph (NE)    
Max Wind Speed 22 mph    
Max Gust Speed 26 mph    
Visibility 10 miles    
Events Rain    
T = Trace of Precipitation, MM = Missing Value Source: NWS Daily Summary

Daily Weather History Graph

Daily Weather History Graph

Search for Another Location

Airport:

Trip Planner

Search our weather history database for the weather conditions in past years. The results will help you decide how hot, cold, wet, or windy it might be!

Date:

Astronomy

Oct. 14, 2012 Rise Set
Actual Time 7:21 AM EDT 6:57 PM EDT
Civil Twilight 6:59 AM EDT 7:20 PM EDT
Nautical Twilight 6:32 AM EDT 7:47 PM EDT
Astronomical Twilight 6:06 AM EDT 8:13 PM EDT
Moon 6:21 AM EDT (10/14) 6:18 PM EDT (10/14)
Length of Visible Light 12h 21m
Length of Day
11h 35m
Waning Crescent, 1% of the Moon is Illuminated
Oct 14
Waning Crescent
Oct 15
New
Oct 21
First Quarter
Oct 29
Full
Nov 6
Last Quarter

Hourly Weather History & Observations

Time (EDT) Temp. Heat Index Dew Point Humidity Pressure Visibility Wind Dir Wind Speed Gust Speed Precip Events Conditions
1:53 AM 80.1 °F 85.1 °F 75.0 °F 85% 30.00 in 10.0 mi ENE 11.5 mph - N/A   Partly Cloudy
2:53 AM 80.1 °F 84.5 °F 73.9 °F 81% 29.98 in 10.0 mi NE 15.0 mph - N/A   Partly Cloudy
3:53 AM 80.1 °F 84.5 °F 73.9 °F 81% 29.97 in 10.0 mi NE 12.7 mph - N/A   Clear
4:53 AM 78.1 °F - 73.9 °F 87% 29.96 in 10.0 mi NNE 11.5 mph - N/A   Clear
5:53 AM 79.0 °F - 73.9 °F 84% 29.96 in 10.0 mi NE 12.7 mph - N/A   Clear
6:53 AM 79.0 °F - 75.0 °F 88% 29.96 in 10.0 mi NNE 13.8 mph - N/A   Partly Cloudy
7:53 AM 79.0 °F - 75.9 °F 90% 29.98 in 10.0 mi NE 13.8 mph - N/A   Clear
8:53 AM 81.0 °F 87.3 °F 75.9 °F 85% 29.98 in 10.0 mi NE 15.0 mph - N/A   Partly Cloudy
9:53 AM 80.1 °F 85.8 °F 77.0 °F 90% 29.98 in 10.0 mi NE 13.8 mph - N/A   Scattered Clouds
10:53 AM 81.0 °F 87.9 °F 77.0 °F 88% 29.98 in 10.0 mi ENE 15.0 mph 19.6 mph 0.01 in   Overcast
11:53 AM 81.0 °F 88.6 °F 78.1 °F 91% 29.98 in 10.0 mi ENE 12.7 mph - 0.01 in   Overcast
12:53 PM 84.0 °F 93.7 °F 77.0 °F 79% 29.96 in 10.0 mi NE 13.8 mph - N/A   Partly Cloudy
1:53 PM 86.0 °F 98.3 °F 78.1 °F 77% 29.93 in 10.0 mi NE 15.0 mph - N/A   Scattered Clouds
2:53 PM 86.0 °F 98.3 °F 78.1 °F 77% 29.91 in 10.0 mi NE 16.1 mph - N/A   Partly Cloudy
3:53 PM 86.0 °F 98.3 °F 78.1 °F 77% 29.90 in 10.0 mi NE 15.0 mph - N/A   Partly Cloudy
4:53 PM 82.9 °F 94.8 °F 80.1 °F 91% 29.90 in 10.0 mi NE 15.0 mph - 0.04 in   Partly Cloudy
5:21 PM 82.4 °F 94.0 °F 80.6 °F 94% 29.90 in 2.5 mi NE 11.5 mph 19.6 mph 0.05 in Rain Light Rain
5:29 PM 82.4 °F 94.0 °F 80.6 °F 94% 29.89 in 10.0 mi NE 10.4 mph - 0.05 in   Mostly Cloudy
5:53 PM 81.0 °F 88.6 °F 78.1 °F 91% 29.89 in 10.0 mi ENE 10.4 mph - 0.07 in   Mostly Cloudy
6:53 PM 82.0 °F 92.8 °F 80.1 °F 94% 29.90 in 8.0 mi ENE 11.5 mph - N/A   Partly Cloudy
7:53 PM 80.1 °F 86.7 °F 79.0 °F 96% 29.90 in 10.0 mi NE 11.5 mph - 0.07 in   Mostly Cloudy
8:53 PM 81.0 °F 89.2 °F 79.0 °F 94% 29.92 in 10.0 mi ENE 11.5 mph - N/A   Scattered Clouds
9:53 PM 81.0 °F 89.2 °F 79.0 °F 94% 29.92 in 10.0 mi ENE 12.7 mph - 0.00 in   Scattered Clouds
10:53 PM 80.1 °F 86.4 °F 78.1 °F 94% 29.93 in 10.0 mi ENE 9.2 mph - N/A   Scattered Clouds
11:53 PM 81.0 °F 88.6 °F 78.1 °F 91% 29.91 in 10.0 mi ENE 8.1 mph - N/A   Clear